"Datum/tijd (MET/MEZT)";"golfhoogte"
2024-03-14 06:00;106
2024-03-14 06:10;108
2024-03-14 06:20;103
2024-03-14 06:30;96
2024-03-14 06:40;91
2024-03-14 06:50;89
2024-03-14 07:00;92
2024-03-14 07:10;92
2024-03-14 07:20;91
2024-03-14 07:30;91
2024-03-14 07:40;88
2024-03-14 07:50;91
2024-03-14 08:00;89
2024-03-14 08:10;87
2024-03-14 08:20;94
2024-03-14 08:30;94
2024-03-14 08:40;90
2024-03-14 08:50;85
2024-03-14 09:00;83
2024-03-14 09:10;87
2024-03-14 09:20;91
2024-03-14 09:30;92
2024-03-14 09:40;93
2024-03-14 09:50;92
2024-03-14 10:00;89
2024-03-14 10:10;90
2024-03-14 10:20;92
2024-03-14 10:30;97
2024-03-14 10:40;95
2024-03-14 10:50;89
2024-03-14 11:00;86
2024-03-14 11:10;88
2024-03-14 11:20;91
2024-03-14 11:30;89
2024-03-14 11:40;89
2024-03-14 11:50;92
2024-03-14 12:00;92
2024-03-14 12:10;86
2024-03-14 12:20;80
2024-03-14 12:30;78
2024-03-14 12:40;82
2024-03-14 12:50;77
2024-03-14 13:00;78
2024-03-14 13:10;77
2024-03-14 13:20;72
2024-03-14 13:30;74
2024-03-14 13:40;73
2024-03-14 13:50;80
2024-03-14 14:00;79
2024-03-14 14:10;74
2024-03-14 14:20;70
2024-03-14 14:30;69
2024-03-14 14:40;72
2024-03-14 14:50;74
2024-03-14 15:00;73
2024-03-14 15:10;72
2024-03-14 15:20;71
2024-03-14 15:30;71
2024-03-14 15:40;76
2024-03-14 15:50;75
2024-03-14 16:00;70
2024-03-14 16:10;75
2024-03-14 16:20;76
2024-03-14 16:30;71
2024-03-14 16:40;70
2024-03-14 16:50;70
2024-03-14 17:00;72
2024-03-14 17:10;74
2024-03-14 17:20;70
2024-03-14 17:30;68
2024-03-14 17:40;72
2024-03-14 17:50;71
2024-03-14 18:00;65
2024-03-14 18:10;65
2024-03-14 18:20;64
2024-03-14 18:30;64
2024-03-14 18:40;65
2024-03-14 18:50;62
2024-03-14 19:00;58
2024-03-14 19:10;55
2024-03-14 19:20;53
2024-03-14 19:30;51
2024-03-14 19:40;53
2024-03-14 19:50;54
2024-03-14 20:00;51
2024-03-14 20:10;52
2024-03-14 20:20;55
2024-03-14 20:30;55
2024-03-14 20:40;53
2024-03-14 20:50;52
2024-03-14 21:00;60
2024-03-14 21:10;60
2024-03-14 21:20;61
2024-03-14 21:30;61
2024-03-14 21:40;61
2024-03-14 21:50;60
2024-03-14 22:00;62
2024-03-14 22:10;65
2024-03-14 22:20;66
2024-03-14 22:30;67
2024-03-14 22:40;68
2024-03-14 22:50;62
2024-03-14 23:00;58
2024-03-14 23:10;58
2024-03-14 23:20;62
2024-03-14 23:30;63
2024-03-14 23:40;61
2024-03-14 23:50;60
2024-03-15 00:00;59
2024-03-15 00:10;59
2024-03-15 00:20;62
2024-03-15 00:30;59
2024-03-15 00:40;60
2024-03-15 00:50;64
2024-03-15 01:00;65
2024-03-15 01:10;69
2024-03-15 01:20;70
2024-03-15 01:30;69
2024-03-15 01:40;73
2024-03-15 01:50;79
2024-03-15 02:00;78
2024-03-15 02:10;78
2024-03-15 02:20;85
2024-03-15 02:30;88
2024-03-15 02:40;86
2024-03-15 02:50;85
2024-03-15 03:00;91
2024-03-15 03:10;91
2024-03-15 03:20;93
2024-03-15 03:30;96
2024-03-15 03:40;97
2024-03-15 03:50;100
2024-03-15 04:00;104
2024-03-15 04:10;107
2024-03-15 04:20;107
2024-03-15 04:30;102
2024-03-15 04:40;102
2024-03-15 04:50;106
2024-03-15 05:00;113
2024-03-15 05:10;112
2024-03-15 05:20;104
2024-03-15 05:30;106
2024-03-15 05:40;109
2024-03-15 05:50;107
2024-03-15 06:00;108
2024-03-15 06:10;110
2024-03-15 06:20;108
2024-03-15 06:30;104
2024-03-15 06:40;105
2024-03-15 06:50;107
2024-03-15 07:00;106
2024-03-15 07:10;114
2024-03-15 07:20;112
2024-03-15 07:30;98
2024-03-15 07:40;103
2024-03-15 07:50;113
2024-03-15 08:00;115
2024-03-15 08:10;108
2024-03-15 08:20;108
2024-03-15 08:30;110
2024-03-15 08:40;113
2024-03-15 08:50;119
2024-03-15 09:00;122
2024-03-15 09:10;127
2024-03-15 09:20;126
2024-03-15 09:30;124
2024-03-15 09:40;130
2024-03-15 09:50;138
2024-03-15 10:00;139
2024-03-15 10:10;135
2024-03-15 10:20;136
2024-03-15 10:30;137
2024-03-15 10:40;131
2024-03-15 10:50;145
2024-03-15 11:00;153
2024-03-15 11:10;148
2024-03-15 11:20;153
2024-03-15 11:30;156
2024-03-15 11:40;173
2024-03-15 11:50;176
2024-03-15 12:00;178
2024-03-15 12:10;165
2024-03-15 12:20;149
2024-03-15 12:30;165
2024-03-15 12:40;182
2024-03-15 12:50;171
2024-03-15 13:00;159
2024-03-15 13:10;191
2024-03-15 13:20;183
2024-03-15 13:30;191
2024-03-15 13:40;192
2024-03-15 13:50;191
2024-03-15 14:00;188
2024-03-15 14:10;201
2024-03-15 14:20;209
2024-03-15 14:30;213
2024-03-15 14:40;207
2024-03-15 14:50;191
2024-03-15 15:00;185
2024-03-15 15:10;199
2024-03-15 15:20;198
2024-03-15 15:30;168
2024-03-15 15:40;166
2024-03-15 15:50;169
2024-03-15 16:00;184
2024-03-15 16:10;200
2024-03-15 16:20;190
2024-03-15 16:30;183
2024-03-15 16:40;179
2024-03-15 16:50;184
2024-03-15 17:00;166
2024-03-15 17:10;171
2024-03-15 17:20;182
2024-03-15 17:30;176
2024-03-15 17:40;176
2024-03-15 17:50;187
2024-03-15 18:00;191
2024-03-15 18:10;194
2024-03-15 18:20;182
2024-03-15 18:30;182
2024-03-15 18:40;183
2024-03-15 18:50;172
2024-03-15 19:00;176
2024-03-15 19:10;173
2024-03-15 19:20;160
2024-03-15 19:30;164
2024-03-15 19:40;165
2024-03-15 19:50;155
2024-03-15 20:00;154
2024-03-15 20:10;172
2024-03-15 20:20;166
2024-03-15 20:30;153
2024-03-15 20:40;159
2024-03-15 20:50;159
2024-03-15 21:00;164
2024-03-15 21:10;163
2024-03-15 21:20;157
2024-03-15 21:30;161
2024-03-15 21:40;161
2024-03-15 21:50;165
2024-03-15 22:00;164
2024-03-15 22:10;151
2024-03-15 22:20;139
2024-03-15 22:30;140
2024-03-15 22:40;147
2024-03-15 22:50;156
2024-03-15 23:00;164
2024-03-15 23:10;160
2024-03-15 23:20;158
2024-03-15 23:30;152
2024-03-15 23:40;142
2024-03-15 23:50;137
2024-03-16 00:00;136
2024-03-16 00:10;134
2024-03-16 00:20;128
2024-03-16 00:30;130
2024-03-16 00:40;132
2024-03-16 00:50;134
2024-03-16 01:00;131
2024-03-16 01:10;129
2024-03-16 01:20;127
2024-03-16 01:30;126
2024-03-16 01:40;125
2024-03-16 01:50;124
2024-03-16 02:00;124
2024-03-16 02:10;128
2024-03-16 02:20;131
2024-03-16 02:30;134
2024-03-16 02:40;134
2024-03-16 02:50;129
2024-03-16 03:00;125
2024-03-16 03:10;126
2024-03-16 03:20;130
2024-03-16 03:30;130
2024-03-16 03:40;126
2024-03-16 03:50;125
2024-03-16 04:00;125
2024-03-16 04:10;140
2024-03-16 04:20;145
2024-03-16 04:30;134
2024-03-16 04:40;137
2024-03-16 04:50;138
2024-03-16 05:00;136
2024-03-16 05:10;135
2024-03-16 05:20;139
2024-03-16 05:30;136
2024-03-16 05:40;133
2024-03-16 05:50;135
2024-03-16 06:00;134
2024-03-16 06:10;136
2024-03-16 06:20;138
2024-03-16 06:30;139
2024-03-16 06:40;143
2024-03-16 06:50;142
2024-03-16 07:00;134
2024-03-16 07:10;129
2024-03-16 07:20;137
2024-03-16 07:30;138
2024-03-16 07:40;127
2024-03-16 07:50;132
2024-03-16 08:00;131
2024-03-16 08:10;130
2024-03-16 08:20;137
2024-03-16 08:30;132
2024-03-16 08:40;127
2024-03-16 08:50;128
2024-03-16 09:00;127
2024-03-16 09:10;126
2024-03-16 09:20;126
2024-03-16 09:30;120
2024-03-16 09:40;124
2024-03-16 09:50;122
2024-03-16 10:00;112
2024-03-16 10:10;115
2024-03-16 10:20;116
2024-03-16 10:30;116
2024-03-16 10:40;122
2024-03-16 10:50;120
2024-03-16 11:00;124
2024-03-16 11:10;129
2024-03-16 11:20;126
2024-03-16 11:30;129
2024-03-16 11:40;119
2024-03-16 11:50;121
2024-03-16 12:00;123
2024-03-16 12:10;119
2024-03-16 12:20;119
2024-03-16 12:30;123
2024-03-16 12:40;118
2024-03-16 12:50;113
2024-03-16 13:00;111
2024-03-16 13:10;114
2024-03-16 13:20;115
2024-03-16 13:30;116
2024-03-16 13:40;118
2024-03-16 13:50;112
2024-03-16 14:00;113
2024-03-16 14:10;115
2024-03-16 14:20;112
2024-03-16 14:30;112
2024-03-16 14:40;113
2024-03-16 14:50;112
2024-03-16 15:00;120
2024-03-16 15:10;130
2024-03-16 15:20;125
2024-03-16 15:30;122
2024-03-16 15:40;131
2024-03-16 15:50;133
2024-03-16 16:00;136
2024-03-16 16:10;141
2024-03-16 16:20;144
2024-03-16 16:30;133
2024-03-16 16:40;129
2024-03-16 16:50;138
2024-03-16 17:00;138
2024-03-16 17:10;144
2024-03-16 17:20;149
2024-03-16 17:30;152
2024-03-16 17:40;150
2024-03-16 17:50;144
2024-03-16 18:00;137
2024-03-16 18:10;133
2024-03-16 18:20;148
2024-03-16 18:30;150
2024-03-16 18:40;139
2024-03-16 18:50;129
2024-03-16 19:00;134
2024-03-16 19:10;135
2024-03-16 19:20;131
2024-03-16 19:30;131
2024-03-16 19:40;139
2024-03-16 19:50;138
2024-03-16 20:00;132
2024-03-16 20:10;134
2024-03-16 20:20;133
2024-03-16 20:30;132
2024-03-16 20:40;133
2024-03-16 20:50;144
2024-03-16 21:00;148
2024-03-16 21:10;135
2024-03-16 21:20;132
2024-03-16 21:30;133
2024-03-16 21:40;128
2024-03-16 21:50;128
2024-03-16 22:00;134
2024-03-16 22:10;129
2024-03-16 22:20;129
2024-03-16 22:30;129
2024-03-16 22:40;125
2024-03-16 22:50;119
2024-03-16 23:00;116
2024-03-16 23:10;114
2024-03-16 23:20;116
2024-03-16 23:30;117
2024-03-16 23:40;113
2024-03-16 23:50;113
2024-03-17 00:00;115
2024-03-17 00:10;128
2024-03-17 00:20;132
2024-03-17 00:30;132
2024-03-17 00:40;129
2024-03-17 00:50;121
2024-03-17 01:00;127
2024-03-17 01:10;127
2024-03-17 01:20;124
2024-03-17 01:30;119
2024-03-17 01:40;116
2024-03-17 01:50;123
2024-03-17 02:00;118
2024-03-17 02:10;116
2024-03-17 02:20;130
2024-03-17 02:30;130
2024-03-17 02:40;129
2024-03-17 02:50;134
2024-03-17 03:00;131
2024-03-17 03:10;129
2024-03-17 03:20;124
2024-03-17 03:30;122
2024-03-17 03:40;121
2024-03-17 03:50;119
2024-03-17 04:00;124
2024-03-17 04:10;123
2024-03-17 04:20;126
2024-03-17 04:30;122
2024-03-17 04:40;112
2024-03-17 04:50;115
2024-03-17 05:00;127
2024-03-17 05:10;124
2024-03-17 05:20;114
2024-03-17 05:30;112
2024-03-17 05:40;113
2024-03-17 05:50;123
2024-03-17 06:00;123
2024-03-17 06:10;115
2024-03-17 06:20;113
2024-03-17 06:30;115
2024-03-17 06:40;108
2024-03-17 06:50;106
2024-03-17 07:00;103
2024-03-17 07:10;101
2024-03-17 07:20;108
2024-03-17 07:30;111
2024-03-17 07:40;105
2024-03-17 07:50;100
2024-03-17 08:00;101
2024-03-17 08:10;98
2024-03-17 08:20;98
2024-03-17 08:30;106
2024-03-17 08:40;104
2024-03-17 08:50;99
2024-03-17 09:00;99
2024-03-17 09:10;93
2024-03-17 09:20;87
2024-03-17 09:30;89
2024-03-17 09:40;87
2024-03-17 09:50;90
2024-03-17 10:00;90
2024-03-17 10:10;88
2024-03-17 10:20;92
2024-03-17 10:30;89
2024-03-17 10:40;90
2024-03-17 10:50;88
2024-03-17 11:00;80
2024-03-17 11:10;82
2024-03-17 11:20;83
2024-03-17 11:30;79
2024-03-17 11:40;81
2024-03-17 11:50;80
2024-03-17 12:00;79
2024-03-17 12:10;81
2024-03-17 12:20;81
2024-03-17 12:30;81
2024-03-17 12:40;82
2024-03-17 12:50;82
2024-03-17 13:00;82
2024-03-17 13:10;86
2024-03-17 13:20;87
2024-03-17 13:30;82
2024-03-17 13:40;79
2024-03-17 13:50;78
2024-03-17 14:00;79
2024-03-17 14:10;79
2024-03-17 14:20;80
2024-03-17 14:30;78
2024-03-17 14:40;77
2024-03-17 14:50;82
2024-03-17 15:00;86
2024-03-17 15:10;80
2024-03-17 15:20;75
2024-03-17 15:30;79
2024-03-17 15:40;81
2024-03-17 15:50;82
2024-03-17 16:00;80
2024-03-17 16:10;77
2024-03-17 16:20;78
2024-03-17 16:30;80
2024-03-17 16:40;81
2024-03-17 16:50;78
2024-03-17 17:00;80
2024-03-17 17:10;80
2024-03-17 17:20;75
2024-03-17 17:30;72
2024-03-17 17:40;68
2024-03-17 17:50;67
2024-03-17 18:00;69
2024-03-17 18:10;72
2024-03-17 18:20;77
2024-03-17 18:30;76
2024-03-17 18:40;73
2024-03-17 18:50;72
2024-03-17 19:00;73
2024-03-17 19:10;75
2024-03-17 19:20;77
2024-03-17 19:30;74
2024-03-17 19:40;73
2024-03-17 19:50;78
2024-03-17 20:00;75
2024-03-17 20:10;72
2024-03-17 20:20;76
2024-03-17 20:30;80
2024-03-17 20:40;79
2024-03-17 20:50;71
2024-03-17 21:00;72
2024-03-17 21:10;72
2024-03-17 21:20;69
2024-03-17 21:30;66
2024-03-17 21:40;67
2024-03-17 21:50;67
2024-03-17 22:00;64
2024-03-17 22:10;61
2024-03-17 22:20;62
2024-03-17 22:30;63
2024-03-17 22:40;59
2024-03-17 22:50;58
2024-03-17 23:00;61
2024-03-17 23:10;62
2024-03-17 23:20;58
2024-03-17 23:30;58
2024-03-17 23:40;56
2024-03-17 23:50;55
2024-03-18 00:00;54
2024-03-18 00:10;54
2024-03-18 00:20;53
2024-03-18 00:30;51
2024-03-18 00:40;51
2024-03-18 00:50;50
2024-03-18 01:00;50
2024-03-18 01:10;53
2024-03-18 01:20;54
2024-03-18 01:30;54
2024-03-18 01:40;54
2024-03-18 01:50;53
2024-03-18 02:00;54
2024-03-18 02:10;58
2024-03-18 02:20;58
2024-03-18 02:30;64
2024-03-18 02:40;64
2024-03-18 02:50;62
2024-03-18 03:00;63
2024-03-18 03:10;64
2024-03-18 03:20;62
2024-03-18 03:30;63
2024-03-18 03:40;63
2024-03-18 03:50;62
2024-03-18 04:00;64
2024-03-18 04:10;62
2024-03-18 04:20;61
2024-03-18 04:30;63
2024-03-18 04:40;64
2024-03-18 04:50;65
2024-03-18 05:00;64
2024-03-18 05:10;61
2024-03-18 05:20;59
2024-03-18 05:30;58
2024-03-18 05:40;58
2024-03-18 05:50;57
2024-03-18 06:00;55
2024-03-18 06:10;55
2024-03-18 06:20;59
2024-03-18 06:30;60
2024-03-18 06:40;57
2024-03-18 06:50;60
2024-03-18 07:00;63
2024-03-18 07:10;60
2024-03-18 07:20;61
2024-03-18 07:30;64
2024-03-18 07:40;62
2024-03-18 07:50;61
2024-03-18 08:00;61
2024-03-18 08:10;59
2024-03-18 08:20;55
2024-03-18 08:30;51
2024-03-18 08:40;53
2024-03-18 08:50;57
2024-03-18 09:00;54
2024-03-18 09:10;48
2024-03-18 09:20;49
2024-03-18 09:30;51
2024-03-18 09:40;53
2024-03-18 09:50;49
2024-03-18 10:00;47
2024-03-18 10:10;50
2024-03-18 10:20;51
2024-03-18 10:30;48
2024-03-18 10:40;46
2024-03-18 10:50;47
2024-03-18 11:00;48
2024-03-18 11:10;42
2024-03-18 11:20;44
2024-03-18 11:30;44
2024-03-18 11:40;43
2024-03-18 11:50;42
2024-03-18 12:00;41
2024-03-18 12:10;41
2024-03-18 12:20;41
2024-03-18 12:30;40
2024-03-18 12:40;39
2024-03-18 12:50;40
2024-03-18 13:00;40
2024-03-18 13:10;39
2024-03-18 13:20;38
2024-03-18 13:30;38
2024-03-18 13:40;38
2024-03-18 13:50;38
2024-03-18 14:00;37
2024-03-18 14:10;37
2024-03-18 14:20;37
2024-03-18 14:30;36
2024-03-18 14:40;37
2024-03-18 14:50;35
2024-03-18 15:00;34
2024-03-18 15:10;35
2024-03-18 15:20;35
2024-03-18 15:30;35
2024-03-18 15:40;36
2024-03-18 15:50;37
2024-03-18 16:00;39
2024-03-18 16:10;40
2024-03-18 16:20;38
2024-03-18 16:30;39
2024-03-18 16:40;40
2024-03-18 16:50;41
2024-03-18 17:00;41
2024-03-18 17:10;41
2024-03-18 17:20;39
2024-03-18 17:30;38
2024-03-18 17:40;37
2024-03-18 17:50;37
2024-03-18 18:00;37
2024-03-18 18:10;38
2024-03-18 18:20;37
2024-03-18 18:30;37
2024-03-18 18:40;37
2024-03-18 18:50;39
2024-03-18 19:00;40
2024-03-18 19:10;39
2024-03-18 19:20;39
2024-03-18 19:30;37
2024-03-18 19:40;36
2024-03-18 19:50;37
2024-03-18 20:00;37
2024-03-18 20:10;37
2024-03-18 20:20;36
2024-03-18 20:30;36
2024-03-18 20:40;35
2024-03-18 20:50;35
2024-03-18 21:00;36
2024-03-18 21:10;36
2024-03-18 21:20;34
2024-03-18 21:30;32
2024-03-18 21:40;32
2024-03-18 21:50;32
2024-03-18 22:00;33
2024-03-18 22:10;31
2024-03-18 22:20;32
2024-03-18 22:30;33
2024-03-18 22:40;33
2024-03-18 22:50;32
2024-03-18 23:00;35
2024-03-18 23:10;37
2024-03-18 23:20;41
2024-03-18 23:30;35
2024-03-18 23:40;35
2024-03-18 23:50;35
2024-03-19 00:00;35
2024-03-19 00:10;36
2024-03-19 00:20;38
2024-03-19 00:30;38
2024-03-19 00:40;38
2024-03-19 00:50;38
2024-03-19 01:00;40
2024-03-19 01:10;42
2024-03-19 01:20;43
2024-03-19 01:30;44
2024-03-19 01:40;43
2024-03-19 01:50;43
2024-03-19 02:00;46
2024-03-19 02:10;49
2024-03-19 02:20;49
2024-03-19 02:30;51
2024-03-19 02:40;55
2024-03-19 02:50;54
2024-03-19 03:00;52
2024-03-19 03:10;55
2024-03-19 03:20;54
2024-03-19 03:30;55
2024-03-19 03:40;61
2024-03-19 03:50;62
2024-03-19 04:00;65
2024-03-19 04:10;67
2024-03-19 04:20;67
2024-03-19 04:30;69
2024-03-19 04:40;68
2024-03-19 04:50;70
2024-03-19 05:00;74
2024-03-19 05:10;73
2024-03-19 05:20;69
2024-03-19 05:30;70
2024-03-19 05:40;73
2024-03-19 05:50;76
2024-03-19 06:00;75
2024-03-19 06:10;74
2024-03-19 06:20;73
2024-03-19 06:30;68
2024-03-19 06:40;68
2024-03-19 06:50;70
2024-03-19 07:00;72
2024-03-19 07:10;71
2024-03-19 07:20;68
2024-03-19 07:30;75
2024-03-19 07:40;76
2024-03-19 07:50;72
2024-03-19 08:00;73
2024-03-19 08:10;77
2024-03-19 08:20;78
2024-03-19 08:30;70
2024-03-19 08:40;70
2024-03-19 08:50;73
2024-03-19 09:00;69
2024-03-19 09:10;68
2024-03-19 09:20;73
2024-03-19 09:30;71
2024-03-19 09:40;68
2024-03-19 09:50;68
2024-03-19 10:00;69
2024-03-19 10:10;73
2024-03-19 10:20;72
2024-03-19 10:30;71
2024-03-19 10:40;74
2024-03-19 10:50;74
2024-03-19 11:00;75
2024-03-19 11:10;79
2024-03-19 11:20;77
2024-03-19 11:30;77
2024-03-19 11:40;81
2024-03-19 11:50;65
2024-03-19 12:00;67
2024-03-19 12:10;70
2024-03-19 12:20;68
2024-03-19 12:30;69
2024-03-19 12:40;68
2024-03-19 12:50;68
2024-03-19 13:00;67
2024-03-19 13:10;62
2024-03-19 13:20;62
2024-03-19 13:30;62
2024-03-19 13:40;61
2024-03-19 13:50;62
2024-03-19 14:00;62
2024-03-19 14:10;61
2024-03-19 14:20;64
2024-03-19 14:30;60
2024-03-19 14:40;58
2024-03-19 14:50;58
2024-03-19 15:00;57
2024-03-19 15:10;61
2024-03-19 15:20;63
2024-03-19 15:30;59
2024-03-19 15:40;58
2024-03-19 15:50;58
2024-03-19 16:00;59
2024-03-19 16:10;60
2024-03-19 16:20;61
2024-03-19 16:30;60
2024-03-19 16:40;60
2024-03-19 16:50;59
2024-03-19 17:00;58
2024-03-19 17:10;58
2024-03-19 17:20;60
2024-03-19 17:30;60
2024-03-19 17:40;60
2024-03-19 17:50;59
2024-03-19 18:00;57
2024-03-19 18:10;57
2024-03-19 18:20;60
2024-03-19 18:30;62
2024-03-19 18:40;62
2024-03-19 18:50;57
2024-03-19 19:00;58
2024-03-19 19:10;62
2024-03-19 19:20;57
2024-03-19 19:30;56
2024-03-19 19:40;59
2024-03-19 19:50;63
2024-03-19 20:00;62
2024-03-19 20:10;57
2024-03-19 20:20;56
2024-03-19 20:30;57
2024-03-19 20:40;56
2024-03-19 20:50;56
2024-03-19 21:00;58
2024-03-19 21:10;60
2024-03-19 21:20;61
2024-03-19 21:30;57
2024-03-19 21:40;59
2024-03-19 21:50;60
2024-03-19 22:00;58
2024-03-19 22:10;57
2024-03-19 22:20;56
2024-03-19 22:30;55
2024-03-19 22:40;54
2024-03-19 22:50;56
2024-03-19 23:00;59
2024-03-19 23:10;61
2024-03-19 23:20;62
2024-03-19 23:30;63
2024-03-19 23:40;63
2024-03-19 23:50;62
2024-03-20 00:00;61
2024-03-20 00:10;64
2024-03-20 00:20;67
2024-03-20 00:30;65
2024-03-20 00:40;63
2024-03-20 00:50;63
2024-03-20 01:00;61
2024-03-20 01:10;62
2024-03-20 01:20;58
2024-03-20 01:30;54
2024-03-20 01:40;56
2024-03-20 01:50;54
2024-03-20 02:00;51
2024-03-20 02:10;49
2024-03-20 02:20;49
2024-03-20 02:30;49
2024-03-20 02:40;48
2024-03-20 02:50;47
2024-03-20 03:00;47
2024-03-20 03:10;46
2024-03-20 03:20;45
2024-03-20 03:30;44
2024-03-20 03:40;44
2024-03-20 03:50;42
2024-03-20 04:00;43
2024-03-20 04:10;46
2024-03-20 04:20;47
2024-03-20 04:30;45
2024-03-20 04:40;45
2024-03-20 04:50;45
2024-03-20 05:00;44
2024-03-20 05:10;42
2024-03-20 05:20;44
2024-03-20 05:30;46
2024-03-20 05:40;44
2024-03-20 05:50;45
2024-03-20 06:00;44
2024-03-20 06:10;43
2024-03-20 06:20;42
2024-03-20 06:30;41
2024-03-20 06:40;44
2024-03-20 06:50;45
2024-03-20 07:00;42
2024-03-20 07:10;43
2024-03-20 07:20;42
2024-03-20 07:30;39
2024-03-20 07:40;38
2024-03-20 07:50;37
2024-03-20 08:00;36
2024-03-20 08:10;35
2024-03-20 08:20;35
2024-03-20 08:30;35
2024-03-20 08:40;34
2024-03-20 08:50;33
2024-03-20 09:00;34
2024-03-20 09:10;36
2024-03-20 09:20;36
2024-03-20 09:30;35
2024-03-20 09:40;35
2024-03-20 09:50;35
2024-03-20 10:00;32
2024-03-20 10:10;32
2024-03-20 10:20;33
2024-03-20 10:30;34
2024-03-20 10:40;35
2024-03-20 10:50;34
2024-03-20 11:00;34
2024-03-20 11:10;32
2024-03-20 11:20;32
2024-03-20 11:30;33
2024-03-20 11:40;33
2024-03-20 11:50;33
2024-03-20 12:00;32
2024-03-20 12:10;33
2024-03-20 12:20;32
2024-03-20 12:30;31
2024-03-20 12:40;33
2024-03-20 12:50;35
2024-03-20 13:00;38
2024-03-20 13:10;35
2024-03-20 13:20;34
2024-03-20 13:30;35
2024-03-20 13:40;29
2024-03-20 13:50;28
2024-03-20 14:00;27
2024-03-20 14:10;27
2024-03-20 14:20;27
2024-03-20 14:30;25
2024-03-20 14:40;25
2024-03-20 14:50;25
2024-03-20 15:00;25
2024-03-20 15:10;27
2024-03-20 15:20;27
2024-03-20 15:30;26
2024-03-20 15:40;26
2024-03-20 15:50;26
2024-03-20 16:00;26
2024-03-20 16:10;27
2024-03-20 16:20;26
2024-03-20 16:30;26
2024-03-20 16:40;25
2024-03-20 16:50;26
2024-03-20 17:00;27
2024-03-20 17:10;27
2024-03-20 17:20;27
2024-03-20 17:30;26
2024-03-20 17:40;27
2024-03-20 17:50;28
2024-03-20 18:00;26
2024-03-20 18:10;26
2024-03-20 18:20;26
2024-03-20 18:30;26
2024-03-20 18:40;27
2024-03-20 18:50;26
2024-03-20 19:00;25
2024-03-20 19:10;25
2024-03-20 19:20;26
2024-03-20 19:30;25
2024-03-20 19:40;25
2024-03-20 19:50;25
2024-03-20 20:00;25
2024-03-20 20:10;24
2024-03-20 20:20;27
2024-03-20 20:30;28
2024-03-20 20:40;27
2024-03-20 20:50;26
2024-03-20 21:00;25
2024-03-20 21:10;27
2024-03-20 21:20;28
2024-03-20 21:30;27
2024-03-20 21:40;27
2024-03-20 21:50;27
2024-03-20 22:00;28
2024-03-20 22:10;28
2024-03-20 22:20;29
2024-03-20 22:30;29
2024-03-20 22:40;27
2024-03-20 22:50;27
2024-03-20 23:00;27
2024-03-20 23:10;29
2024-03-20 23:20;31
2024-03-20 23:30;30
2024-03-20 23:40;29
2024-03-20 23:50;29
2024-03-21 00:00;30
2024-03-21 00:10;32
2024-03-21 00:20;30
2024-03-21 00:30;29
2024-03-21 00:40;31
2024-03-21 00:50;32
2024-03-21 01:00;31
2024-03-21 01:10;34
2024-03-21 01:20;34
2024-03-21 01:30;35
2024-03-21 01:40;36
2024-03-21 01:50;37
2024-03-21 02:00;39
2024-03-21 02:10;41
2024-03-21 02:20;43
2024-03-21 02:30;45
2024-03-21 02:40;48
2024-03-21 02:50;47
2024-03-21 03:00;47
2024-03-21 03:10;52
2024-03-21 03:20;52
2024-03-21 03:30;52
2024-03-21 03:40;55
2024-03-21 03:50;62
2024-03-21 04:00;67
2024-03-21 04:10;72
2024-03-21 04:20;77
2024-03-21 04:30;78
2024-03-21 04:40;83
2024-03-21 04:50;88
2024-03-21 05:00;89
2024-03-21 05:10;86
2024-03-21 05:20;83
2024-03-21 05:30;79
2024-03-21 05:40;77
2024-03-21 05:50;76
2024-03-21 06:00;79
2024-03-21 06:10;83
2024-03-21 06:20;82
2024-03-21 06:30;83
2024-03-21 06:40;79
2024-03-21 06:50;76
2024-03-21 07:00;74
2024-03-21 07:10;71
2024-03-21 07:20;72
2024-03-21 07:30;72
2024-03-21 07:40;71
2024-03-21 07:50;72
2024-03-21 08:00;75
2024-03-21 08:10;76
2024-03-21 08:20;75
2024-03-21 08:30;70
2024-03-21 08:40;65
2024-03-21 08:50;68
2024-03-21 09:00;71
2024-03-21 09:10;73
2024-03-21 09:20;71
2024-03-21 09:30;71
2024-03-21 09:40;68
2024-03-21 09:50;66
2024-03-21 10:00;71
2024-03-21 10:10;73
2024-03-21 10:20;73
2024-03-21 10:30;71
2024-03-21 10:40;71
2024-03-21 10:50;74
2024-03-21 11:00;73
2024-03-21 11:10;74
2024-03-21 11:20;74
2024-03-21 11:30;72
2024-03-21 11:40;70
2024-03-21 11:50;69
2024-03-21 12:00;70
2024-03-21 12:10;70
2024-03-21 12:20;73
2024-03-21 12:30;73
2024-03-21 12:40;75
2024-03-21 12:50;76
2024-03-21 13:00;75
2024-03-21 13:10;72
2024-03-21 13:20;70
2024-03-21 13:30;73
2024-03-21 13:40;74
2024-03-21 13:50;77
2024-03-21 14:00;77
2024-03-21 14:10;73
2024-03-21 14:20;73
2024-03-21 14:30;74
2024-03-21 14:40;76
2024-03-21 14:50;76
2024-03-21 15:00;78
2024-03-21 15:10;82
2024-03-21 15:20;84
2024-03-21 15:30;88
2024-03-21 15:40;92
2024-03-21 15:50;94
2024-03-21 16:00;97
2024-03-21 16:10;94
2024-03-21 16:20;99
2024-03-21 16:30;103
2024-03-21 16:40;106
2024-03-21 16:50;106
2024-03-21 17:00;88
2024-03-21 17:10;91
2024-03-21 17:20;96
2024-03-21 17:30;96
2024-03-21 17:40;97
2024-03-21 17:50;96
2024-03-21 18:00;94
2024-03-21 18:10;94
2024-03-21 18:20;94
2024-03-21 18:30;90
2024-03-21 18:40;85
2024-03-21 18:50;86
2024-03-21 19:00;90
2024-03-21 19:10;86
2024-03-21 19:20;83
2024-03-21 19:30;89
2024-03-21 19:40;89
2024-03-21 19:50;84
2024-03-21 20:00;84
2024-03-21 20:10;83
2024-03-21 20:20;85
2024-03-21 20:30;94
2024-03-21 20:40;92
2024-03-21 20:50;89
2024-03-21 21:00;94
2024-03-21 21:10;98
2024-03-21 21:20;95
2024-03-21 21:30;87
2024-03-21 21:40;87
2024-03-21 21:50;91
2024-03-21 22:00;94
2024-03-21 22:10;96
2024-03-21 22:20;98
2024-03-21 22:30;98
2024-03-21 22:40;94
2024-03-21 22:50;93
2024-03-21 23:00;96
2024-03-21 23:10;92
2024-03-21 23:20;92
2024-03-21 23:30;96
2024-03-21 23:40;100
2024-03-21 23:50;103
2024-03-22 00:00;103
2024-03-22 00:10;104
2024-03-22 00:20;104
2024-03-22 00:30;110
2024-03-22 00:40;111
2024-03-22 00:50;105
2024-03-22 01:00;103
2024-03-22 01:10;110
2024-03-22 01:20;116